Location: Doverdale
(52.2833°N, 2.2000°W)
Time: 14:33:35
(UTC+00:00)

Meteor 2-21 Rocket - Pass Details

Date: 29 October 2020
Orbit: 935 x 968 km, 82.5° (Epoch: 28 November)

Event Time Altitude Azimuth Distance (km) Brightness Sun altitude
Rises 17:11:40 0° 349° (N) 3,662 7.5 -4.8°
Reaches altitude 10° 17:14:13 10° 352° (N) 2,708 6.8 -5.1°
Maximum altitude 17:20:24 70° 76° (ENE) 1,018 4.5 -6.0°
Drops below altitude 10° 17:26:29 10° 160° (SSE) 2,667 6.7 -7.0°
Sets 17:28:59 0° 163° (SSE) 3,603 7.4 -7.3°
